Location: Givhans Ferry State Park
(33.0284°N, 80.3868°W)
Time: 15:32:52
(UTC-04:00)

Daily predictions for brighter satellites

Satellite Brightness Start Highest point End
(mag) Time Altitude Azimuth Time Altitude Azimuth Time Altitude Azimuth
Meteor 1-15 Rocket 4.3 19:31:56 10° S 19:37:48 74° E 19:43:39 10° NNE
FENGYUN 3A 3.9 19:38:50 10° SSE 19:43:56 49° ENE 19:49:06 10° N
Cosmos 1707 3.9 19:43:47 10° NNE 19:46:56 23° ENE 19:50:04 10° SE
Cosmos 2369 Rocket 2.2 19:43:03 10° NNW 19:48:42 72° ENE 19:54:16 10° SSE
Cosmos 468 Rocket 4.0 19:45:48 10° SSW 19:50:58 89° ESE 19:56:14 10° NNE
Shenzhou-11 Module 3.6 19:48:50 10° W 19:51:34 31° SW 19:54:18 10° SSE
Cosmos 841 Rocket 4.0 19:47:40 10° SSE 19:52:16 34° E 19:56:53 10° NE
Cosmos 1825 Rocket 3.7 19:48:47 10° N 19:53:06 53° E 19:57:25 10° SSE
METEOR-M 4.5 19:49:52 10° S 19:55:11 72° WSW 20:00:33 10° NNW
CZ-4 R/B 4.4 19:52:04 10° SSW 19:55:16 22° W 19:58:30 10° NW
USA 229 DEB 4.2 19:49:42 10° NNW 19:56:37 47° NE 20:03:38 10° SE
USA 229 4.2 19:49:48 10° NNW 19:56:42 47° NE 20:03:41 10° SE
Cosmos 1937 Rocket 4.2 19:52:23 10° N 19:57:13 35° ENE 20:01:59 10° SE
Yuri Rocket 4.4 19:56:24 10° SW 20:00:00 23° SSE 20:02:52 12° ESE
Cosmos 2181 Rocket 4.1 19:54:16 10° N 20:00:18 53° E 20:06:15 10° SSE
Cosmos 1340 Rocket 3.1 19:56:31 10° N 20:00:26 45° E 20:04:21 10° SSE
Cosmos 1271 Rocket 3.0 19:57:23 10° SSW 20:01:05 68° W 20:04:52 10° N
NOAA 12 4.2 19:59:43 10° SSE 20:04:56 85° WSW 20:10:13 10° NNW
Cosmos 2263 4.1 20:03:43 10° NNW 20:09:21 77° ENE 20:15:00 10° SSE
HJ-1C 4.1 20:06:47 10° SE 20:09:47 31° ENE 20:12:47 10° N
SL-08 ROCKET BODY 4.3 20:06:17 10° S 20:12:03 65° E 20:17:54 10° NNE
Cosmos 1763 Rocket 3.4 20:09:10 10° SSW 20:14:14 81° ESE 20:19:23 10° NNE
Cosmos 2074 Rocket 4.2 20:08:58 10° SSE 20:14:51 46° E 20:20:43 10° NNE
Cosmos 1378 3.3 20:14:13 10° N 20:17:55 50° E 20:21:34 10° SSE
CZ-2D R/B 4.3 20:16:53 21° ESE 20:18:13 25° ENE 20:21:23 10° NNE
Cosmos 540 Rocket 4.1 20:16:25 10° SSE 20:20:49 30° E 20:25:14 10° NE
Thor Agena Rocket 4.2 20:15:55 10° N 20:21:05 59° WNW 20:26:09 10° SSW
OAO 3 Copernicus 4.3 20:16:17 10° WSW 20:21:21 86° SSE 20:24:49 20° ENE
Cosmos 1544 4.0 20:23:42 26° E 20:23:42 26° E 20:26:41 10° NNE
Cosmos 1758 Rocket 3.6 20:20:10 10° N 20:24:41 86° W 20:29:10 10° S
SJ-6B 2.8 20:22:06 10° SSE 20:26:08 67° ENE 20:30:05 10° N
Cosmos 1726 Rocket 4.3 20:22:58 10° SSW 20:27:16 56° W 20:31:33 10° N
Cosmos 304 Rocket 3.6 20:23:32 10° S 20:28:16 74° ESE 20:33:04 10° NNE
Meteor 1-24 Rocket 4.2 20:25:46 10° N 20:31:24 42° ENE 20:35:32 17° SE
Cosmos 482 Debris 4.1 20:29:04 10° NNW 20:32:16 35° NE 20:32:22 34° NE
Tiangong 2 3.0 20:31:49 10° W 20:34:31 25° SW 20:36:12 17° S
Spot 2 Rocket 4.1 20:35:49 28° ESE 20:37:23 35° ENE 20:41:56 10° N
Resurs 01 Rocket 2.0 20:40:29 35° ESE 20:41:39 43° ENE 20:45:50 10° N
Milstar 3 Cent rocket 2.7 20:40:04 10° SW 20:44:36 32° SSE 20:45:32 29° SE
GEOS 3 Rocket 3.7 20:39:26 10° NE 20:44:44 57° ESE 20:49:59 10° SSW
ALOS 4.0 20:40:35 10° SSW 20:44:45 33° W 20:48:58 10° NNW
Cosmos 2184 Rocket 4.0 20:42:46 10° S 20:49:02 89° E 20:55:25 10° N
FALCON 9 R/B 1.8 20:48:06 10° W 20:51:13 74° N 20:53:49 33° E
Cosmos 1943 Rocket 3.0 20:48:18 10° NNW 20:53:41 51° WSW 20:59:05 10° S
GP-B 3.5 20:50:27 10° NNE 20:54:02 42° ENE 20:54:02 42° ENE
MOS 1-B Rocket 4.1 20:52:11 27° SE 20:55:33 54° ENE 21:01:13 10° N
Cosmos 1610 Rocket 4.4 20:51:22 10° S 20:57:39 72° E 21:04:00 10° N
GPS 2-04 Rocket1 4.3 20:54:47 10° W 20:58:31 29° SSW 20:59:33 26° S
H-2A R/B 4.2 20:55:14 10° SSW 20:58:37 35° W 21:02:03 10° NNW
Meteor 2-5 Rocket 4.3 20:55:05 10° NNW 21:00:50 61° W 21:06:27 10° S
Lacrosse 5 3.9 20:57:40 10° WNW 21:01:42 24° WSW 21:05:42 10° S
Meteor 1-22 Rocket 4.5 20:57:45 10° SSW 21:03:35 72° W 21:09:11 10° N
Cosmos 1125 Rocket 4.3 20:58:56 10° N 21:03:08 35° NE 21:03:08 35° NE
Cosmos 1812 Rocket 3.5 21:04:32 67° ENE 21:04:32 67° ENE 21:08:43 10° NNE
Envisat 2.9 21:08:43 62° ESE 21:09:21 69° ENE 21:14:25 10° N
Cosmos 1766 4.1 21:06:40 10° SSW 21:10:30 49° W 21:14:19 10° N
COSMOS 2406 3.6 21:11:14 10° SSW 21:16:51 62° WNW 21:22:31 10° NNE
Meteor 2-8 Rocket 4.3 21:12:21 10° N 21:18:30 87° E 21:20:53 40° S
Meteor 2-19 Rocket 4.5 21:19:49 10° S 21:25:51 76° W 21:31:55 10° N
Cosmos 1656 Rocket 4.2 21:28:47 10° NNW 21:34:15 55° WSW 21:35:30 45° SSW
Cosmos 962 Rocket 4.3 21:35:23 80° ESE 21:35:31 81° E 21:41:54 10° N
ATLAS 2AS CENTAUR R/B 4.4 21:36:59 10° N 21:42:18 21° NE 21:42:18 21° NE
NOSS 3-1 (A) 4.0 21:44:31 10° NNW 21:52:27 84° WSW 21:53:33 70° S
Cosmos 2341 Rocket 4.3 22:01:46 61° WNW 22:01:46 61° WNW 22:07:27 10° N
Resurs 01 Rocket 4.4 22:18:05 13° W 22:18:16 13° W 22:20:22 10° WNW
